CW5398 Weather Reports


time (UTC)temp
C
wind
direction
speed
KPH
gust
KPH
rain 1hr
cm
rain 24hr
cm
rain mn
cm
humidity
%
barometer
mb
20260503225016 25 203 3.2 11.3 0.00 0.00 0.00 46 1011.3
20260503224016 25 203 1.6 8.0 0.00 0.00 0.00 44 1011.6
20260503223036 25 203 1.6 8.0 0.00 0.00 0.00 42 1011.6
20260503222021 25 203 1.6 9.7 0.00 0.00 0.00 47 1011.8
20260503221020 25 225 3.2 16.1 0.00 0.00 0.00 47 1012.0
20260503220016 25 248 4.8 11.3 0.00 0.00 0.00 44 1012.0
20260503215016 25 248 4.8 12.9 0.00 0.00 0.00 46 1012.3
20260503214036 26 225 3.2 12.9 0.00 0.00 0.00 47 1012.3
20260503213016 26 248 3.2 12.9 0.00 0.00 0.00 44 1012.3
20260503212016 26 225 1.6 6.4 0.00 0.00 0.00 44 1012.4
20260503211016 26 225 1.6 9.7 0.00 0.00 0.00 46 1012.4
20260503210016 26 225 1.6 8.0 0.00 0.00 0.00 49 1012.4
20260503205016 25 203 1.6 9.7 0.00 0.00 0.00 49 1012.5
20260503204016 25 203 3.2 9.7 0.00 0.00 0.00 50 1012.6
20260503203036 23 203 4.8 11.3 0.00 0.00 0.00 50 1012.6
20260503202036 23 203 1.6 11.3 0.00 0.00 0.00 50 1012.7
20260503201016 23 203 3.2 11.3 0.00 0.00 0.00 53 1012.9
20260503200016 23 225 3.2 17.7 0.00 0.00 0.00 52 1012.9
20260503195015 23 225 1.6 9.7 0.00 0.00 0.00 50 1013.1
20260503194016 23 225 1.6 9.7 0.00 0.00 0.00 54 1013.3
20260503193016 22 203 1.6 8.0 0.00 0.00 0.00 56 1013.3
20260503192016 22 203 3.2 11.3 0.00 0.00 0.00 60 1013.3
20260503191035 22 203 1.6 8.0 0.00 0.00 0.00 57 1013.5
20260503190031 22 225 3.2 12.9 0.00 0.00 0.00 56 1013.5
20260503185016 22 225 1.6 9.7 0.00 0.00 0.00 58 1013.8
20260503184015 22 225 1.6 8.0 0.00 0.00 0.00 60 1013.9
20260503183035 22 225 1.6 9.7 0.00 0.00 0.00 58 1013.9
20260503182016 22 225 4.8 9.7 0.00 0.00 0.00 59 1014.0
20260503181015 22 225 1.6 9.7 0.00 0.00 0.00 59 1014.2
20260503180016 21 225 1.6 8.0 0.00 0.00 0.00 60 1014.2
20260503175015 21 225 1.6 8.0 0.00 0.00 0.00 60 1014.4
20260503174016 20 225 1.6 8.0 0.00 0.00 0.00 66 1014.4
20260503173015 20 293 3.2 9.7 0.00 0.00 0.00 64 1014.4
20260503172015 20 293 0.0 1.6 0.00 0.00 0.00 63 1014.4
20260503171036 20 293 0.0 4.8 0.00 0.00 0.00 67 1014.4
20260503131017 10 286 0.0 0.0 0.00 0.00 0.00 93 1014.4
20260503081016 12 293 0.0 1.6 0.00 0.00 0.00 88 1014.3
20260503072016 13 293 0.0 6.4 0.00 0.00 0.00 88 1014.1
20260503071016 13 286 0.0 0.0 0.00 0.00 0.00 87 1014.1
20260503055016 13 293 0.0 1.6 0.00 0.00 0.00 87 1014.1
20260503054016 13 293 0.0 3.2 0.00 0.00 0.00 87 1014.2
20260503053015 13 286 0.0 0.0 0.00 0.00 0.00 86 1014.2
20260503052015 13 286 0.0 0.0 0.00 0.00 0.00 84 1014.1
20260503051015 14 286 0.0 0.0 0.00 0.00 0.00 84 1014.2
20260503050016 14 293 0.0 1.6 0.00 0.00 0.00 84 1014.1
20260503045015 14 293 1.6 6.4 0.00 0.00 0.00 84 1014.0
20260503044016 14 293 1.6 4.8 0.00 0.00 0.00 84 1014.0
20260503043015 15 293 1.6 3.2 0.00 0.00 0.00 84 1013.9
20260503042015 15 286 0.0 0.0 0.00 0.00 0.00 84 1013.8
20260503041015 15 286 0.0 0.0 0.00 0.00 0.00 83 1013.8
20260503040016 16 286 0.0 0.0 0.00 0.00 0.00 84 1013.8
20260503035015 16 286 0.0 0.0 0.00 0.00 0.00 84 1013.7
20260503034016 17 286 0.0 0.0 0.00 0.00 0.00 81 1013.4
20260503033015 17 286 0.0 0.0 0.00 0.00 0.00 78 1013.4
20260503032037 18 286 0.0 0.0 0.00 0.00 0.00 76 1013.3
20260503031017 18 286 0.0 0.0 0.00 0.00 0.00 72 1013.3
20260503030017 20 286 0.0 0.0 0.00 0.00 0.00 68 1013.3
20260503025017 20 286 0.0 0.0 0.00 0.00 0.00 66 1013.3
20260503024017 21 293 0.0 1.6 0.00 0.00 0.00 64 1013.3
20260503023017 22 286 0.0 0.0 0.00 0.00 0.00 56 1013.3
20260503022017 22 293 0.0 4.8 0.00 0.00 0.00 54 1013.4
20260503021017 22 293 1.6 8.0 0.00 0.00 0.00 54 1013.5
20260503020057 22 293 1.6 8.0 0.00 0.00 0.00 54 1013.5
20260503015015 22 293 0.0 6.4 0.00 0.00 0.00 53 1013.5
20260503014017 22 293 3.2 9.7 0.00 0.00 0.00 51 1013.8
20260503013017 22 293 1.6 8.0 0.00 0.00 0.00 52 1013.8
20260503012017 22 293 1.6 6.4 0.00 0.00 0.00 54 1013.8
20260503011017 22 293 0.0 8.0 0.00 0.00 0.00 55 1013.9
20260503010017 22 293 1.6 9.7 0.00 0.00 0.00 55 1013.9
20260503005017 22 293 1.6 9.7 0.00 0.00 0.00 55 1013.9
20260503004017 22 293 0.0 6.4 0.00 0.00 0.00 57 1013.9
20260503003017 22 293 0.0 4.8 0.00 0.00 0.00 59 1013.9
20260503002016 23 293 0.0 3.2 0.00 0.00 0.00 55 1013.9
20260503001037 23 293 1.6 6.4 0.00 0.00 0.00 49 1013.9
20260503000016 22 293 0.0 4.8 0.00 0.00 0.00 54 1013.9
20260502235017 22 293 1.6 8.0 0.00 0.00 0.00 57 1014.2
20260502234017 22 293 0.0 1.6 0.00 0.00 0.00 56 1014.4
20260502233017 22 293 1.6 9.7 0.00 0.00 0.00 56 1014.4
20260502232037 22 293 1.6 8.0 0.00 0.00 0.00 55 1014.6
20260502231016 22 293 1.6 9.7 0.00 0.00 0.00 58 1014.9
20260502230016 22 293 1.6 9.7 0.00 0.00 0.00 55 1014.9